Starlink 30271

operational
NORAD ID: 57669 Int'l Des: 2023-124 Owner: SPXS Country: US Constellation: starlink
LEOCIRCULAR

Starlink 30271について

説明を読み込み中...

リアルタイム位置

3D地球を読み込み中...

次回通過

高度履歴

Altitude vs Time

uPlot chart will show altitude changes over time

軌道要素

1 57669U 23124G 26035.59821730 -.00002257 00000-0 -64092-4 0 9999
2 57669 53.1632 0.7574 0001390 104.2850 255.8305 15.30204557138496
Epoch: Feb 4, 2026 • Age: 14 hours

現在のステータス

高度 484.6 km
速度 7.62 km/s
衛星直下点 -28.68°S, 134.1°E
打ち上げ日 Aug 22, 2023
運用期間 2.4 years
タイプ internet

技術仕様

分類 Payload
質量 730.00 kg
乾燥質量 700.00 kg
総質量 730.00 kg
長さ 0.30 m
直径 4.10 m
スパン 29.00 m
形状 Box + pan
製造者 SPXS
バスタイプ Starlink V2M
フェーズステータス In Orbit
所有者/国 SPXS/US

大規模コンステレーション

Loading constellations...